User: anonymous
Location: Albany
(35.0000°S, 118.0000°E)
Time: 05:47:17
(UTC-04:00)
Language:

Cosmos 1933 - Orbit

View from above orbital plane
View from above orbital plane
View from above satellite
View from above satellite

Ground track
Ground track

The orbit data is extracted from the following two-line orbital elements,

1 18958U 88020A   14272.44401449  .00002883  00000-0  22423-3 0  4436
2 18958 082.5320 339.6830 0013441 057.5730 302.6793 15.00863763442611
Epoch (UTC): 29 September 2014 10:39:22
Eccentricity: 0.0013441
inclination: 82.5320°
perigee height: 555 km
apogee height: 573 km
right ascension of ascending node: 339.6830°
argument of perigee: 57.5730°
revolutions per day: 15.00863763
mean anomaly at epoch: 302.6793°
orbit number at epoch: 44261

The dashed part of the orbit path shows where the satellite is in the earth's shadow,  

DLR